EW0607 Weather Reports


Display with metric or nautical units.
time (UTC)temp
F
wind
direction
speed
MPH
gust
MPH
rain 1hr
in
rain 24hr
in
rain mn
in
humidity
%
barometer
mb
20260901135602 75 360 0.0 0.0 0.00 0.00 0.00 38 1005.3
20260901135045 74 360 0.0 0.0 0.00 0.00 0.00 42 1005.2
20260901134525 73 360 0.0 0.0 0.00 0.00 0.00 43 1005.2
20260901134004 73 360 0.0 0.0 0.00 0.00 0.00 45 1005.3
20260901133552 73 360 0.0 0.0 0.00 0.00 0.00 46 1005.3
20260901133032 72 360 0.0 0.0 0.00 0.00 0.00 46 1005.2
20260901132514 72 360 0.0 0.0 0.00 0.00 0.00 46 1005.3
20260901132054 72 360 0.0 0.0 0.00 0.00 0.00 45 1005.2
20260901131542 73 360 0.0 0.0 0.00 0.00 0.00 43 1005.2
20260901131022 73 360 0.0 0.0 0.00 0.00 0.00 42 1005.0
20260901130502 74 360 0.0 0.0 0.00 0.00 0.00 39 1005.0
20260901130045 74 360 0.0 0.0 0.00 0.00 0.00 38 1005.0
20260901125525 74 360 0.0 0.0 0.00 0.00 0.00 36 1004.7
20260901125004 74 360 0.0 0.0 0.00 0.00 0.00 38 1004.6
20260901124554 74 360 0.0 0.0 0.00 0.00 0.00 38 1004.5
20260901124027 74 360 0.0 0.0 0.00 0.00 0.00 37 1004.6
20260901123506 75 360 0.0 0.0 0.00 0.00 0.00 35 1004.5
20260901123052 75 360 0.0 0.0 0.00 0.00 0.00 33 1004.6
20260901122531 75 360 0.0 0.0 0.00 0.00 0.00 32 1004.5
20260901122009 75 360 1.0 0.0 0.00 0.00 0.00 31 1004.5
20260901121557 75 360 1.0 0.0 0.00 0.00 0.00 30 1004.5
20260901121035 75 360 0.0 0.0 0.00 0.00 0.00 30 1004.5
20260901120516 75 360 0.0 0.0 0.00 0.00 0.00 30 1004.5
20260901120100 75 360 0.0 0.0 0.00 0.00 0.00 31 1004.5
20260901115539 75 360 0.0 0.0 0.00 0.00 0.00 32 1004.3
20260901115020 75 360 0.0 0.0 0.00 0.00 0.00 32 1004.3
20260901114604 75 360 0.0 0.0 0.00 0.00 0.00 34 1004.3
20260901114040 75 360 0.0 0.0 0.00 0.00 0.00 35 1004.3
20260901113519 75 360 0.0 0.0 0.00 0.00 0.00 35 1004.3
20260901113111 75 360 0.0 0.0 0.00 0.00 0.00 35 1004.3
20260901112543 75 360 0.0 0.0 0.00 0.00 0.00 36 1004.1
20260901112023 75 360 0.0 0.0 0.00 0.00 0.00 36 1004.2
20260901111502 76 360 0.0 0.0 0.00 0.00 0.00 36 1004.1
20260901111045 76 360 1.0 0.0 0.00 0.00 0.00 36 1004.0
20260901110523 76 360 1.0 0.0 0.00 0.00 0.00 37 1004.0
20260901110005 76 360 0.0 0.0 0.00 0.00 0.00 37 1004.0
20260901105549 76 360 0.0 0.0 0.00 0.00 0.00 36 1003.8
20260901105033 76 360 0.0 0.0 0.00 0.00 0.00 36 1003.9
20260901104509 76 360 0.0 0.0 0.00 0.00 0.00 36 1003.8
20260901104052 76 360 0.0 0.0 0.00 0.00 0.00 35 1003.9
20260901103531 76 360 0.0 0.0 0.00 0.00 0.00 34 1003.8
20260901103015 77 360 0.0 0.0 0.00 0.00 0.00 33 1003.9
20260901102605 77 360 1.0 0.0 0.00 0.00 0.00 33 1003.8
20260901102044 77 360 1.0 0.0 0.00 0.00 0.00 32 1003.8
20260901101522 77 360 1.0 0.0 0.00 0.00 0.00 32 1003.8
20260901101006 78 360 1.0 0.0 0.00 0.00 0.00 31 1003.7
20260901100552 77 360 1.0 0.0 0.00 0.00 0.00 31 1003.6
20260901100037 77 360 0.0 0.0 0.00 0.00 0.00 28 1003.7
20260901095510 77 360 0.0 0.0 0.00 0.00 0.00 28 1003.6
20260901095055 77 360 0.0 0.0 0.00 0.00 0.00 29 1003.6
20260901094536 77 360 0.0 0.0 0.00 0.00 0.00 30 1003.6
20260901094018 78 360 1.0 0.0 0.00 0.00 0.00 31 1003.5
20260901093600 78 360 1.0 0.0 0.00 0.00 0.00 31 1003.3
20260901093039 78 360 1.0 0.0 0.00 0.00 0.00 33 1003.4
20260901092517 78 360 1.0 0.0 0.00 0.00 0.00 34 1003.3
20260901092100 78 360 1.0 0.0 0.00 0.00 0.00 35 1003.2
20260901091547 79 360 1.0 0.0 0.00 0.00 0.00 36 1003.2
20260901091019 79 360 1.0 0.0 0.00 0.00 0.00 37 1003.2
20260901090604 79 360 1.0 0.0 0.00 0.00 0.00 37 1003.2
20260901090043 79 360 1.0 0.0 0.00 0.00 0.00 37 1003.1
20260901085522 79 360 1.0 0.0 0.00 0.00 0.00 38 1003.2
20260901085002 79 360 2.0 0.0 0.00 0.00 0.00 38 1003.0
20260901084545 80 360 2.0 0.0 0.00 0.00 0.00 38 1003.1
20260901084027 80 360 1.0 0.0 0.00 0.00 0.00 38 1003.1
20260901083508 80 360 1.0 0.0 0.00 0.00 0.00 38 1003.0
20260901083052 80 360 2.0 0.0 0.00 0.00 0.00 38 1003.1
20260901082533 80 360 2.0 0.0 0.00 0.00 0.00 38 1003.0
20260901082012 80 360 2.0 0.0 0.00 0.00 0.00 39 1003.0
20260901081556 80 360 3.0 0.0 0.00 0.00 0.00 39 1003.0
20260901081035 80 360 2.0 0.0 0.00 0.00 0.00 39 1003.0
20260901080516 80 360 2.0 0.0 0.00 0.00 0.00 38 1003.0
20260901080057 81 360 3.0 0.0 0.00 0.00 0.00 37 1003.0
20260901075540 81 360 2.0 0.0 0.00 0.00 0.00 31 1003.1
20260901075019 81 360 2.0 0.0 0.00 0.00 0.00 26 1003.0
20260901074612 82 360 2.0 0.0 0.00 0.00 0.00 20 1003.1
20260901074039 83 360 1.0 0.0 0.00 0.00 0.00 17 1003.1
20260901073519 83 360 0.0 0.0 0.00 0.00 0.00 17 1002.9
20260901073102 83 360 0.0 0.0 0.00 0.00 0.00 16 1002.7
20260901072540 83 360 0.0 0.0 0.00 0.00 0.00 17 1002.7
20260901072018 83 360 0.0 0.0 0.00 0.00 0.00 18 1002.6
20260901071601 83 360 0.0 0.0 0.00 0.00 0.00 18 1002.7
20260901071038 83 360 0.0 0.0 0.00 0.00 0.00 18 1002.7
20260901070517 83 360 0.0 0.0 0.00 0.00 0.00 18 1002.6
20260901065539 84 360 2.0 0.0 0.00 0.00 0.00 17 1002.5
20260901065016 84 360 2.0 0.0 0.00 0.00 0.00 18 1002.5
20260901064502 85 360 1.0 0.0 0.00 0.00 0.00 19 1002.4
20260901064050 85 360 1.0 0.0 0.00 0.00 0.00 19 1002.3
20260901063529 85 360 1.0 0.0 0.00 0.00 0.00 21 1002.2
20260901063024 85 360 1.0 0.0 0.00 0.00 0.00 25 1002.2
20260901062553 85 360 1.0 0.0 0.00 0.00 0.00 30 1002.1
20260901062035 85 360 1.0 0.0 0.00 0.00 0.00 33 1001.9
20260901061515 85 360 2.0 0.0 0.00 0.00 0.00 34 1001.8
20260901061100 86 360 2.0 0.0 0.00 0.00 0.00 32 1001.7
20260901060544 86 360 1.0 0.0 0.00 0.00 0.00 32 1001.6
20260901060023 86 360 1.0 0.0 0.00 0.00 0.00 33 1001.6
20260901055506 86 360 1.0 0.0 0.00 0.00 0.00 32 1001.7
20260901055049 87 360 1.0 0.0 0.00 0.00 0.00 32 1001.8
20260901054534 87 360 1.0 0.0 0.00 0.00 0.00 32 1001.8
20260901054014 87 360 1.0 0.0 0.00 0.00 0.00 32 1001.8
20260901053558 87 360 1.0 0.0 0.00 0.00 0.00 31 1001.6
20260901053045 88 360 1.0 0.0 0.00 0.00 0.00 31 1001.5
20260901052522 88 360 1.0 0.0 0.00 0.00 0.00 31 1001.5
20260901052002 88 360 1.0 0.0 0.00 0.00 0.00 31 1001.5
20260901051548 88 360 2.0 0.0 0.00 0.00 0.00 31 1001.5
20260901051033 88 360 2.0 0.0 0.00 0.00 0.00 32 1001.5
20260901050510 88 360 1.0 0.0 0.00 0.00 0.00 32 1001.3
20260901050054 88 360 2.0 0.0 0.00 0.00 0.00 32 1001.3
20260901045538 88 360 1.0 0.0 0.00 0.00 0.00 33 1001.4
20260901045018 88 360 1.0 0.0 0.00 0.00 0.00 33 1001.4
20260901044604 88 360 1.0 0.0 0.00 0.00 0.00 33 1001.4
20260901044041 88 360 1.0 0.0 0.00 0.00 0.00 33 1001.4
20260901043520 88 360 2.0 0.0 0.00 0.00 0.00 33 1001.3
20260901043104 88 360 2.0 0.0 0.00 0.00 0.00 33 1001.2
20260901042544 89 360 2.0 0.0 0.00 0.00 0.00 34 1001.2
20260901042025 89 360 2.0 0.0 0.00 0.00 0.00 35 1001.1
20260901041504 89 360 2.0 0.0 0.00 0.00 0.00 34 1001.0
20260901041051 89 360 1.0 0.0 0.00 0.00 0.00 34 1000.9
20260901040530 89 360 1.0 0.0 0.00 0.00 0.00 34 1000.8
20260901040011 89 360 1.0 0.0 0.00 0.00 0.00 32 1000.6
20260901035554 89 360 1.0 0.0 0.00 0.00 0.00 29 1001.1
20260901035036 89 360 1.0 0.0 0.00 0.00 0.00 27 1001.2
20260901034527 89 360 1.0 0.0 0.00 0.00 0.00 19 1001.2
20260901034102 89 360 0.0 0.0 0.00 0.00 0.00 18 1001.1
20260901033541 90 360 0.0 0.0 0.00 0.00 0.00 19 1000.9
20260901033024 90 360 0.0 0.0 0.00 0.00 0.00 18 1000.8
20260901032504 90 360 0.0 0.0 0.00 0.00 0.00 18 1000.7
20260901032048 90 360 0.0 0.0 0.00 0.00 0.00 17 1000.5
20260901031532 91 360 1.0 0.0 0.00 0.00 0.00 17 1000.5
20260901031009 91 360 1.0 0.0 0.00 0.00 0.00 17 1000.4
20260901030553 91 360 1.0 0.0 0.00 0.00 0.00 17 1000.3
20260901030033 91 360 1.0 0.0 0.00 0.00 0.00 17 1000.3
20260901025516 91 360 1.0 0.0 0.00 0.00 0.00 17 1000.4
20260901025057 91 360 1.0 0.0 0.00 0.00 0.00 17 1000.5
20260901024536 91 360 1.0 0.0 0.00 0.00 0.00 16 1000.4
20260901024018 92 360 1.0 0.0 0.00 0.00 0.00 16 1000.4
20260901023558 92 360 1.0 0.0 0.00 0.00 0.00 16 1000.4
20260901023037 92 360 1.0 0.0 0.00 0.00 0.00 16 1000.4
20260901022521 92 360 1.0 0.0 0.00 0.00 0.00 16 1000.3
20260901022101 92 360 2.0 0.0 0.00 0.00 0.00 16 1000.3
20260901021541 93 360 2.0 0.0 0.00 0.00 0.00 16 1000.2
20260901021024 93 360 2.0 0.0 0.00 0.00 0.00 16 1000.1
20260901020505 93 360 2.0 0.0 0.00 0.00 0.00 16 1000.0
20260901020045 93 360 2.0 0.0 0.00 0.00 0.00 16 999.8
20260901015527 94 360 2.0 0.0 0.00 0.00 0.00 16 1000.0
20260901015015 94 360 2.0 0.0 0.00 0.00 0.00 15 1000.0
20260901014556 94 360 3.0 0.0 0.00 0.00 0.00 15 999.9
20260901014044 94 360 3.0 0.0 0.00 0.00 0.00 15 999.9
20260901013524 95 281 4.0 0.0 0.00 0.00 0.00 15 999.9
20260901013003 95 271 3.0 0.0 0.00 0.00 0.00 15 999.8
20260901012549 95 279 2.0 0.0 0.00 0.00 0.00 15 999.7
20260901012032 96 273 3.0 0.0 0.00 0.00 0.00 15 999.7
20260901011511 96 348 4.0 0.0 0.00 0.00 0.00 14 999.8
20260901011058 96 301 4.0 0.0 0.00 0.00 0.00 14 999.7
20260901010537 96 184 3.0 0.0 0.00 0.00 0.00 14 999.8
20260901010022 97 292 3.0 0.0 0.00 0.00 0.00 14 999.8
20260901005502 97 217 3.0 0.0 0.00 0.00 0.00 14 999.7
20260901005045 97 271 3.0 0.0 0.00 0.00 0.00 14 999.7
20260901004527 97 290 4.0 0.0 0.00 0.00 0.00 14 999.7
20260901004008 97 233 4.0 0.0 0.00 0.00 0.00 14 999.8
20260901003553 98 340 4.0 0.0 0.00 0.00 0.00 14 999.8
20260901003036 98 275 4.0 0.0 0.00 0.00 0.00 14 999.8
20260901002515 98 299 3.0 0.0 0.00 0.00 0.00 14 999.8
20260901002058 98 290 3.0 0.0 0.00 0.00 0.00 14 999.6
20260901001540 98 261 4.0 0.0 0.00 0.00 0.00 14 999.5
20260901001021 98 250 4.0 0.0 0.00 0.00 0.00 14 999.5
20260901000603 99 283 4.0 0.0 0.00 0.00 0.00 14 999.6
20260901000044 99 58 3.0 0.0 0.00 0.00 0.00 14 999.5
20260831235522 100 238 2.0 0.0 0.00 0.00 0.00 14 999.7
20260831235002 100 166 2.0 0.0 0.00 0.00 0.00 15 999.5
20260831234555 100 134 3.0 0.0 0.00 0.00 0.00 15 999.6
20260831234029 99 284 3.0 0.0 0.00 0.00 0.00 15 999.6
20260831233513 99 229 3.0 0.0 0.00 0.00 0.00 15 999.5
20260831233054 100 267 2.0 0.0 0.00 0.00 0.00 14 999.6
20260831232538 100 269 2.0 0.0 0.00 0.00 0.00 14 999.6
20260831232021 100 214 2.0 0.0 0.00 0.00 0.00 15 999.7
20260831231503 100 82 3.0 0.0 0.00 0.00 0.00 15 999.5
20260831231047 100 286 3.0 0.0 0.00 0.00 0.00 14 999.6
20260831230527 100 255 2.0 0.0 0.00 0.00 0.00 14 999.6
20260831230011 100 150 2.0 0.0 0.00 0.00 0.00 16 999.7
20260831225551 100 325 2.0 0.0 0.00 0.00 0.00 16 999.8
20260831225030 100 297 2.0 0.0 0.00 0.00 0.00 16 999.8
20260831224510 100 298 2.0 0.0 0.00 0.00 0.00 16 999.9
20260831224055 100 121 2.0 0.0 0.00 0.00 0.00 15 1000.0
20260831223532 100 67 2.0 0.0 0.00 0.00 0.00 16 1000.0
20260831223013 99 148 2.0 0.0 0.00 0.00 0.00 16 1000.0
20260831222554 100 103 2.0 0.0 0.00 0.00 0.00 17 1000.2
20260831222032 99 177 2.0 0.0 0.00 0.00 0.00 16 1000.3
20260831221510 100 229 2.0 0.0 0.00 0.00 0.00 15 1000.3
20260831221053 100 191 2.0 0.0 0.00 0.00 0.00 15 1000.4
20260831220532 101 306 2.0 0.0 0.00 0.00 0.00 15 1000.4
20260831220010 101 344 2.0 0.0 0.00 0.00 0.00 14 1000.6
20260831215552 101 308 1.0 0.0 0.00 0.00 0.00 16 1000.6
20260831215035 100 28 1.0 0.0 0.00 0.00 0.00 15 1000.8
20260831214518 101 80 2.0 0.0 0.00 0.00 0.00 15 1000.9
20260831214059 100 88 2.0 0.0 0.00 0.00 0.00 16 1000.9
20260831213538 101 246 2.0 0.0 0.00 0.00 0.00 15 1001.1
20260831213021 101 169 2.0 0.0 0.00 0.00 0.00 15 1001.1
20260831212502 101 293 2.0 0.0 0.00 0.00 0.00 16 1001.3
20260831212052 100 232 2.0 0.0 0.00 0.00 0.00 15 1001.4
20260831211527 101 38 2.0 0.0 0.00 0.00 0.00 16 1001.5
20260831211004 101 239 2.0 0.0 0.00 0.00 0.00 19 1001.5
20260831210554 101 57 2.0 0.0 0.00 0.00 0.00 19 1001.6
20260831210029 100 360 2.0 0.0 0.00 0.00 0.00 18 1001.7
20260831205508 99 360 2.0 0.0 0.00 0.00 0.00 19 1001.5
20260831205054 98 360 2.0 0.0 0.00 0.00 0.00 20 1001.8
20260831204540 96 360 2.0 0.0 0.00 0.00 0.00 21 1001.8
20260831204020 98 360 2.0 0.0 0.00 0.00 0.00 21 1002.0
20260831203600 97 360 2.0 0.0 0.00 0.00 0.00 21 1002.0
20260831203051 97 360 2.0 0.0 0.00 0.00 0.00 21 1002.1
20260831202518 96 360 3.0 0.0 0.00 0.00 0.00 21 1002.2
20260831202102 96 360 2.0 0.0 0.00 0.00 0.00 21 1002.4
20260831201548 97 360 2.0 0.0 0.00 0.00 0.00 21 1002.4
20260831201023 98 360 2.0 0.0 0.00 0.00 0.00 21 1002.3
20260831200602 98 360 2.0 0.0 0.00 0.00 0.00 22 1002.5
20260831200119 97 360 2.0 0.0 0.00 0.00 0.00 23 1002.6
20260831195530 97 360 2.0 0.0 0.00 0.00 0.00 22 1002.5
20260831195008 97 360 2.0 0.0 0.00 0.00 0.00 23 1002.5
20260831194610 97 360 1.0 0.0 0.00 0.00 0.00 23 1002.7
20260831194035 95 360 2.0 0.0 0.00 0.00 0.00 24 1002.8
20260831193513 95 360 3.0 0.0 0.00 0.00 0.00 26 1003.0
20260831193057 96 360 2.0 0.0 0.00 0.00 0.00 26 1003.0
20260831192545 95 360 3.0 0.0 0.00 0.00 0.00 26 1003.0
20260831192021 94 360 3.0 0.0 0.00 0.00 0.00 26 1003.3
20260831191619 95 360 2.0 0.0 0.00 0.00 0.00 25 1003.2
20260831191052 96 360 2.0 0.0 0.00 0.00 0.00 26 1003.3
20260831190535 95 360 2.0 0.0 0.00 0.00 0.00 26 1003.4
20260831190018 95 360 2.0 0.0 0.00 0.00 0.00 25 1003.5
20260831185553 95 360 3.0 0.0 0.00 0.00 0.00 25 1003.7
20260831185034 95 360 2.0 0.0 0.00 0.00 0.00 26 1003.8
20260831184513 95 360 2.0 0.0 0.00 0.00 0.00 25 1003.6
20260831184054 95 360 3.0 0.0 0.00 0.00 0.00 26 1003.7
20260831183536 94 360 3.0 0.0 0.00 0.00 0.00 27 1003.8
20260831183014 93 360 3.0 0.0 0.00 0.00 0.00 27 1003.8
20260831182557 93 360 3.0 0.0 0.00 0.00 0.00 26 1003.8
20260831182036 94 360 3.0 0.0 0.00 0.00 0.00 26 1003.9
20260831181520 94 360 2.0 0.0 0.00 0.00 0.00 26 1003.8
20260831181057 93 360 2.0 0.0 0.00 0.00 0.00 27 1003.9
20260831180539 93 360 2.0 0.0 0.00 0.00 0.00 29 1003.9
20260831180017 93 360 2.0 0.0 0.00 0.00 0.00 27 1004.0
20260831175559 93 360 3.0 0.0 0.00 0.00 0.00 27 1003.7
20260831175039 92 360 4.0 0.0 0.00 0.00 0.00 27 1003.8
20260831174516 92 360 4.0 0.0 0.00 0.00 0.00 28 1004.0
20260831174100 92 360 3.0 0.0 0.00 0.00 0.00 29 1003.8
20260831173546 92 288 3.0 0.0 0.00 0.00 0.00 28 1004.0
20260831173024 91 280 3.0 0.0 0.00 0.00 0.00 28 1004.0
20260831172506 91 78 3.0 0.0 0.00 0.00 0.00 28 1004.1
20260831172049 91 107 3.0 0.0 0.00 0.00 0.00 28 1004.2
20260831171528 91 360 2.0 0.0 0.00 0.00 0.00 28 1004.1
20260831171008 92 360 1.0 0.0 0.00 0.00 0.00 28 1004.0
20260831170553 92 360 2.0 0.0 0.00 0.00 0.00 28 1004.1
20260831170039 92 344 2.0 0.0 0.00 0.00 0.00 28 1004.1
20260831165510 91 360 2.0 0.0 0.00 0.00 0.00 28 1004.1
20260831165052 91 50 2.0 0.0 0.00 0.00 0.00 29 1004.0
20260831164531 90 113 3.0 0.0 0.00 0.00 0.00 30 1004.2
20260831164014 89 142 3.0 0.0 0.00 0.00 0.00 30 1004.2
20260831163556 89 101 3.0 0.0 0.00 0.00 0.00 30 1004.2
20260831163038 89 112 2.0 0.0 0.00 0.00 0.00 30 1004.2
20260831162523 89 115 2.0 0.0 0.00 0.00 0.00 30 1004.3
20260831162104 89 114 2.0 0.0 0.00 0.00 0.00 30 1004.3
20260831161541 89 360 2.0 0.0 0.00 0.00 0.00 29 1004.3
20260831161017 88 360 2.0 0.0 0.00 0.00 0.00 28 1004.4
20260831160600 88 360 2.0 0.0 0.00 0.00 0.00 27 1004.4
20260831160040 87 360 4.0 0.0 0.00 0.00 0.00 28 1004.6
20260831155517 87 360 3.0 0.0 0.00 0.00 0.00 28 1004.2
20260831155001 87 360 1.0 0.0 0.00 0.00 0.00 27 1004.2
20260831154550 87 360 1.0 0.0 0.00 0.00 0.00 27 1004.2
20260831154024 88 360 1.0 0.0 0.00 0.00 0.00 27 1004.1
20260831153504 86 360 2.0 0.0 0.00 0.00 0.00 27 1004.1
20260831153048 85 360 3.0 0.0 0.00 0.00 0.00 28 1004.2
20260831152527 85 360 4.0 0.0 0.00 0.00 0.00 28 1004.2
20260831152004 84 360 3.0 0.0 0.00 0.00 0.00 28 1004.1
20260831151552 84 360 3.0 0.0 0.00 0.00 0.00 28 1004.1
20260831151031 84 360 4.0 0.0 0.00 0.00 0.00 29 1004.2
20260831150510 83 360 4.0 0.0 0.00 0.00 0.00 29 1004.2
20260831150052 83 360 4.0 0.0 0.00 0.00 0.00 30 1004.1
20260831145529 83 360 4.0 0.0 0.00 0.00 0.00 30 1004.0
20260831145011 82 360 3.0 0.0 0.00 0.00 0.00 31 1004.0
20260831144552 82 360 3.0 0.0 0.00 0.00 0.00 32 1003.9
20260831144033 81 360 2.0 0.0 0.00 0.00 0.00 32 1004.0
20260831143512 81 360 2.0 0.0 0.00 0.00 0.00 32 1004.1
20260831143058 81 360 3.0 0.0 0.00 0.00 0.00 32 1003.9
20260831142532 80 360 3.0 0.0 0.00 0.00 0.00 33 1003.9
20260831142011 80 360 2.0 0.0 0.00 0.00 0.00 33 1003.8
20260831141607 79 360 2.0 0.0 0.00 0.00 0.00 33 1003.7
20260831141035 79 360 2.0 0.0 0.00 0.00 0.00 32 1003.6
20260831140517 79 360 1.0 0.0 0.00 0.00 0.00 32 1003.6
20260831140054 79 360 1.0 0.0 0.00 0.00 0.00 32 1003.5